Temperature
12 12 12 12 12 12 12 12 12 12 12 12 12 12 12 12 11 11 11 11 12 11 11 12 12 11 11 11 12 12 12 11 12 12 12 12 12 12 12 12 12 12 12
12 12 12 12 12 12 12 12 12 12 12 12 12 11 11 11 11 11 11 11 11 11 11 11 11 11 11 11 11 11 11 11 11 11 11 11 11 11 11 11 11 11 11
12 12 12 12 12 12 12 12 12 12 12 11 11 11 11 11 11 11 11 11 11 11 11 11 11 11 11 11 11 11 11 11 11 11 11 11 11 11 11 11 11 11 11
11 11 12 12 12 12 12 11 11 11 11 11 11 11 11 11 11 11 10 10 10 10 10 11 11 11 11 11 10 10 11 11 11 11 11 11 11 11 11 11 11 11 11
11 11 11 11 11 11 11 11 11 11 11 11 11 10 10 10 10 10 10 10 10 10 10 10 10 10 10 10 10 10 10 10 10 10 10 10 10 10 10 10 10 10 11
11 11 11 11 11 11 11 11 11 11 11 10 10 10 10 10 10 10 10 10 10 10 10 10 10 10 10 10 10 10 10 10 10 10 10 10 10 10 10 10 10 10 10
11 11 11 11 11 11 11 11 11 10 10 10 10 9 9 9 9 9 9 9 9 9 9 9 9 9 9 10 10 9 9 9 9 9 9 9 9 9 9 9 9 9 9
10 10 10 10 10 10 10 10 10 10 10 10 9 9 9 9 9 9 9 9 9 9 9 9 9 9 9 9 9 9 9 9 9 9 9 9 9 9 9 8 9 9 9
10 10 10 10 10 10 10 10 10 10 10 10 9 9 9 10 8 9 9 9 9 9 9 9 9 9 9 9 9 9 9 9 9 9 8 8 8 8 8 8 8 8 8
9 10 10 10 10 10 10 10 10 10 10 9 9 9 9 9 9 8 8 8 8 8 8 8 8 8 8 8 8 8 8 8 8 8 8 8 8 8 8 8 8 8 8
9 9 9 9 9 9 9 10 10 10 9 9 9 9 9 9 9 8 8 8 8 8 8 8 8 8 8 8 8 8 8 8 8 8 8 8 8 8 7 7 8 8 8
9 9 9 9 9 9 9 9 9 9 9 9 9 9 9 9 8 8 8 7 7 8 8 8 8 8 8 8 8 8 8 8 7 7 7 8 7 7 7 7 7 7 7
8 8 8 8 9 9 9 9 9 9 9 9 8 8 8 8 8 8 8 7 7 7 8 8 8 8 7 7 7 7 7 7 7 7 7 7 7 7 7 7 7 7 7
8 8 8 8 8 8 8 8 8 8 8 8 8 8 8 8 8 7 7 7 6 6 7 7 7 7 7 7 7 7 7 7 7 7 7 7 7 7 7 6 7 6 6
7 7 8 8 8 8 8 8 8 8 8 8 7 7 7 7 7 7 7 7 6 6 6 6 6 7 7 7 7 6 6 6 6 6 6 6 6 6 6 6 6 6 6
7 7 7 7 7 7 7 7 7 7 7 7 7 7 7 7 7 6 6 6 6 6 5 6 6 6 6 6 6 6 6 6 6 6 6 6 6 6 6 6 6 6 6
7 7 7 7 7 7 7 7 7 7 7 7 7 6 6 6 6 6 6 6 6 5 5 5 5 5 6 6 6 5 5 5 5 5 5 5 5 5 5 5 5 5 5
6 7 6 6 6 6 6 6 6 6 6 6 6 6 6 6 6 5 5 5 5 5 5 5 5 5 5 5 5 5 5 5 5 5 5 5 5 5 5 5 5 5 4
6 6 6 6 6 6 6 6 6 6 6 6 6 5 5 5 5 5 5 5 5 5 4 4 4 4 4 4 4 4 4 4 4 4 4 4 4 4 4 4 4 4 4
6 6 6 5 6 6 5 5 5 5 5 5 5 5 5 5 5 4 4 4 4 4 4 4 4 4 4 4 3 3 3 3 4 4 4 4 4 4 4 4 3 3 3
5 5 5 5 5 5 5 5 5 5 5 5 5 4 4 4 4 4 4 4 4 4 3 3 3 3 3 3 3 2 2 3 3 3 3 3 3 3 3 3 3 3 2
5 5 5 5 5 4 4 4 4 4 4 4 4 4 4 4 4 4 3 3 3 3 3 3 3 2 2 2 2 2 2 1 1 2 2 2 2 2 2 2 2 2 2
4 4 4 4 4 4 4 4 4 3 3 3 3 3 3 3 3 3 3 3 3 2 2 2 2 2 2 2 2 1 1 1 1 1 1 1 1 1 1 1 1 1 1
4 4 4 4 3 3 3 3 3 3 3 3 3 3 3 3 3 2 2 2 2 2 2 2 2 2 2 1 1 1 1 0 0 0 0 0 1 0 1 1 1 1 1
3 3 3 3 3 3 3 3 3 2 2 2 2 2 2 2 2 2 2 2 1 2 1 1 1 1 1 1 1 0 -0 -0 -0 -0 -0 -0 -0 -0 -0 0 0 0 -0
2 2 2 2 2 2 2 2 2 2 2 2 2 2 2 1 1 1 1 1 1 1 1 1 1 1 1 0 0 -0 -0 -1 -1 -1 -1 -1 -1 -1 -1 -1 -1 -1 -1
Wind_Speed
4 4 4 4 4 3 4 3 3 4 4 4 4 3 3 3 3 3 4 6 5 5 4 4 3 3 3 3 3 3 2 2 2 2 2 2 2 3 3 4 4 5 5
4 4 4 4 3 3 3 3 3 3 3 3 3 3 3 3 3 3 3 4 6 6 5 4 4 4 4 3 3 3 2 3 3 3 2 2 3 3 4 5 5 5 5
4 4 4 3 3 4 4 4 3 3 4 4 4 3 3 2 3 3 3 2 3 5 6 5 4 4 5 4 3 3 3 3 3 4 4 4 4 4 4 5 5 6 6
4 4 4 3 3 4 4 3 3 3 4 4 3 3 2 2 2 3 3 2 2 1 3 4 4 4 4 5 4 4 4 4 4 4 4 4 4 4 5 6 6 6 6
4 4 4 3 4 3 3 3 3 3 4 4 4 3 2 2 2 2 2 2 2 1 1 2 2 4 4 4 4 4 4 4 4 4 4 4 5 5 6 6 6 6 7
4 4 4 4 4 3 3 4 4 4 3 4 4 3 2 2 2 2 2 2 1 1 0 1 0 1 3 4 4 4 4 3 3 3 3 4 5 5 6 6 6 7 7
4 4 4 4 4 3 4 4 4 5 4 4 3 3 3 2 2 2 2 2 1 1 0 1 1 1 0 1 3 4 5 4 4 3 4 4 5 5 6 7 7 7 7
4 3 4 4 4 4 4 5 5 4 3 3 3 3 3 4 3 2 2 2 2 1 0 1 1 1 1 1 2 3 4 5 4 4 4 5 5 6 7 7 7 8 8
3 3 3 4 4 4 4 5 5 5 4 3 3 3 3 3 2 3 3 3 2 2 2 2 2 1 2 2 2 2 4 4 5 5 5 5 6 7 7 8 8 9 9
3 3 3 4 4 4 5 5 5 4 5 4 3 2 1 1 2 2 4 4 3 4 3 2 2 2 2 2 2 2 3 4 5 6 6 6 7 7 8 8 9 9 9
3 4 4 4 4 4 5 5 5 5 4 4 4 3 3 2 3 3 3 3 3 4 4 3 3 3 3 3 3 3 3 4 5 7 7 7 8 8 9 9 9 10 10
3 4 4 4 4 4 4 4 4 5 4 5 4 4 3 3 3 4 4 3 3 3 3 3 3 3 3 4 3 3 4 5 6 7 8 8 8 9 9 9 10 10 10
4 4 4 4 4 4 4 4 4 5 5 5 5 4 3 3 2 3 3 3 3 2 3 3 3 3 3 4 4 4 5 6 7 8 9 9 9 9 9 10 10 10 11
4 5 4 4 4 5 5 4 4 4 4 4 4 4 3 3 3 3 3 3 3 3 4 3 2 3 3 4 4 5 6 6 7 8 9 9 9 9 10 10 10 10 11
4 5 5 4 4 4 5 5 4 4 4 4 4 4 3 3 3 3 3 4 4 4 4 3 2 2 3 4 4 5 6 7 8 10 10 9 9 9 10 10 11 10 11
4 5 5 4 4 4 5 5 4 4 4 4 3 4 4 3 3 3 4 4 5 5 4 3 3 3 3 4 5 6 7 7 9 9 10 10 10 10 11 11 11 11 11
5 5 5 5 4 4 4 5 5 5 5 5 5 5 5 4 4 4 4 5 5 5 6 5 4 4 5 5 5 6 6 7 7 8 9 10 10 10 11 11 11 11 11
5 5 5 5 5 4 5 5 5 6 6 6 5 5 5 4 5 5 5 6 6 6 6 7 5 5 6 6 6 6 6 6 7 8 9 10 10 11 11 11 11 12 12
4 4 5 5 5 5 5 5 5 6 6 6 6 6 6 6 6 5 6 6 5 5 5 6 6 5 5 4 5 6 6 6 7 7 8 10 10 11 11 11 11 12 11
4 4 5 5 5 5 5 5 5 6 6 6 6 6 7 7 7 6 6 6 6 6 5 5 5 5 5 4 5 5 5 5 5 6 7 8 9 11 11 11 11 11 11
4 4 4 4 4 4 5 5 5 5 6 6 6 6 7 7 7 7 6 6 6 6 5 6 6 5 5 4 5 4 6 6 6 4 5 5 6 7 8 9 10 10 11
4 4 4 4 5 4 5 6 6 6 6 6 7 7 6 7 7 9 10 10 9 8 8 7 7 7 7 6 5 5 5 6 6 3 5 7 6 7 7 7 8 10 11
4 4 5 5 6 6 6 7 8 7 7 7 7 7 6 6 7 7 8 9 10 11 12 10 10 10 8 7 6 7 7 7 8 5 5 7 6 7 7 8 10 11 11
4 5 5 6 6 6 7 8 8 8 8 8 8 8 8 8 7 7 7 7 8 9 10 10 10 10 8 7 7 7 8 8 8 5 5 7 6 7 7 8 9 11 12
4 5 5 5 6 6 7 8 8 7 7 8 8 8 8 8 8 8 8 8 9 8 8 10 11 10 10 10 8 5 5 6 7 6 4 5 5 6 7 7 7 10 11
4 4 5 6 6 7 6 8 9 6 7 7 6 7 9 10 9 9 9 9 10 9 7 7 8 9 9 9 10 9 7 7 6 5 3 4 4 4 5 4 4 6 8
Wind_Direction
168 160 157 157 155 153 150 141 149 149 150 149 147 148 142 136 129 122 101 77 55 52 73 77 70 70 78 91 89 72 54 33 27 11 335 322 314 314 314 317 320 327 331
171 167 161 158 154 158 156 153 149 156 147 139 141 143 142 141 131 124 114 105 73 53 59 66 58 52 50 71 86 78 59 36 29 24 9 353 346 336 327 323 320 322 322
176 169 163 160 157 162 162 157 147 151 150 143 141 133 129 128 130 125 116 112 107 75 59 58 52 44 38 46 64 73 63 47 38 30 24 12 1 348 335 331 328 324 324
176 165 162 161 163 166 165 163 157 154 158 155 148 141 133 122 131 128 121 111 100 96 80 57 45 40 34 35 43 55 59 52 41 32 24 14 4 353 340 334 331 327 325
179 169 161 157 163 165 166 168 166 164 163 157 149 145 148 149 146 135 129 119 107 94 91 101 78 44 29 30 32 36 44 46 40 29 19 10 1 353 346 342 337 333 331
175 176 159 158 159 162 168 168 165 158 164 159 147 144 152 159 162 155 146 128 120 111 47 17 141 67 47 30 23 18 19 22 24 16 9 2 356 352 350 345 342 336 333
178 185 169 161 167 173 177 169 166 157 161 162 160 156 160 170 172 170 168 154 136 127 50 339 332 320 339 50 24 9 6 2 359 357 351 344 341 341 340 338 338 333 327
183 183 181 171 174 175 175 169 168 169 167 182 192 184 189 193 185 191 194 194 197 175 198 318 337 329 317 305 13 7 355 349 342 340 341 340 336 332 333 333 331 331 327
189 181 184 177 177 182 178 176 179 184 180 184 201 209 205 205 178 188 203 212 216 220 228 244 277 287 297 305 311 358 350 347 334 327 328 328 330 329 328 326 324 326 324
191 184 184 184 182 184 178 179 185 188 191 192 193 226 259 213 203 195 197 208 223 236 236 238 252 258 262 265 281 331 333 331 325 318 318 318 321 321 321 321 323 323 321
186 183 184 187 187 188 185 183 186 192 195 199 197 194 199 207 221 226 222 211 219 230 239 243 242 243 240 242 256 288 295 302 307 307 305 309 313 314 315 317 318 320 320
189 181 181 188 189 191 187 187 190 196 200 200 203 205 206 208 203 218 233 232 237 233 238 243 246 243 237 244 252 278 283 290 295 301 298 298 302 305 308 311 312 314 315
200 196 190 194 190 189 188 187 190 197 201 203 207 210 215 228 226 228 235 238 246 251 243 236 237 244 243 252 258 264 269 281 289 294 296 294 295 297 301 304 307 309 310
203 197 198 198 194 188 185 187 194 199 200 203 212 213 217 222 230 233 232 232 242 243 240 242 234 232 247 255 271 262 264 270 279 287 291 294 295 296 298 300 303 305 305
195 193 197 194 189 187 188 189 200 200 198 201 206 207 214 217 221 230 230 233 238 246 246 244 239 232 251 261 271 269 275 275 273 277 282 286 287 290 294 295 296 296 297
186 190 188 190 189 189 191 194 200 200 198 201 206 212 217 221 217 221 223 228 236 244 249 248 254 270 272 270 270 273 276 277 270 272 276 279 280 283 286 289 289 288 289
196 191 186 188 192 198 200 202 204 200 205 207 210 215 223 223 223 224 227 228 230 234 246 257 263 271 271 269 275 277 278 280 277 272 277 279 278 279 281 284 285 283 284
196 188 187 191 193 199 206 211 211 209 212 215 217 220 226 227 229 231 230 230 231 232 243 258 266 268 269 268 274 277 281 280 281 280 277 280 281 281 280 281 281 281 280
195 192 196 199 199 202 207 214 218 218 220 224 225 227 231 232 235 235 237 237 235 238 243 254 263 270 273 270 275 274 275 279 280 280 278 277 278 279 280 279 280 279 278
203 203 207 210 208 208 213 217 220 224 229 231 232 232 233 235 240 241 242 241 237 237 242 248 257 265 270 273 270 274 280 283 281 283 278 277 275 274 274 275 274 273 274
211 213 215 219 219 221 221 218 223 229 233 237 237 238 238 239 245 247 246 244 238 236 239 245 254 261 262 262 264 272 279 289 284 278 284 279 280 280 278 274 270 270 273
218 218 222 225 227 233 220 222 231 234 235 238 241 242 240 236 238 244 248 248 246 243 240 244 251 254 260 262 262 264 273 283 282 269 284 283 280 280 282 279 281 278 276
221 226 229 231 236 239 226 228 231 239 241 242 244 244 243 240 237 244 245 244 246 246 247 250 252 255 261 259 259 259 260 265 271 277 283 279 278 277 279 277 277 276 278
226 231 236 239 242 244 232 234 234 242 246 246 245 245 247 246 238 239 247 251 253 250 246 245 250 256 260 258 251 258 265 271 277 267 261 273 279 280 284 279 272 271 273
233 237 241 242 244 246 236 238 237 245 247 249 248 246 245 248 240 238 244 249 255 257 249 244 253 259 261 256 252 253 254 260 271 269 256 267 279 289 287 279 270 266 268
239 240 245 245 246 251 244 242 240 244 248 250 249 246 241 244 246 238 243 246 253 260 260 254 250 253 253 248 240 237 241 248 264 268 241 250 273 291 289 279 276 278 273
Height
1525 1526 1527 1528 1529 1530 1531 1532 1533 1534 1535 1536 1536 1537 1538 1538 1538 1539 1539 1539 1539 1539 1539 1539 1540 1540 1540 1539 1539 1538 1538 1538 1537 1537 1536 1536 1535 1534 1534 1534 1533 1532 1531
1523 1524 1525 1526 1527 1528 1529 1531 1532 1533 1534 1534 1535 1536 1537 1537 1537 1538 1538 1538 1538 1538 1538 1538 1539 1539 1539 1538 1538 1537 1537 1536 1536 1535 1535 1534 1534 1533 1532 1532 1531 1530 1530
1521 1522 1523 1524 1525 1526 1527 1529 1530 1531 1532 1533 1534 1535 1535 1536 1536 1536 1536 1537 1537 1537 1537 1537 1537 1537 1537 1537 1537 1536 1536 1535 1535 1534 1533 1533 1532 1531 1531 1530 1529 1528 1528
1518 1520 1521 1522 1523 1524 1525 1527 1528 1529 1530 1531 1532 1533 1534 1534 1535 1535 1535 1535 1536 1536 1536 1536 1536 1536 1536 1536 1535 1535 1534 1534 1533 1533 1532 1531 1531 1530 1529 1528 1527 1526 1525
1516 1518 1519 1520 1521 1522 1523 1525 1526 1527 1528 1529 1530 1531 1532 1533 1533 1533 1534 1534 1534 1534 1534 1534 1534 1534 1534 1534 1534 1534 1533 1532 1532 1531 1530 1530 1529 1528 1527 1526 1525 1524 1523
1514 1516 1517 1518 1519 1520 1522 1523 1524 1525 1527 1527 1528 1529 1530 1531 1532 1532 1532 1532 1532 1532 1533 1533 1533 1533 1532 1532 1532 1532 1531 1530 1530 1529 1529 1528 1527 1526 1525 1524 1523 1522 1521
1512 1514 1515 1517 1518 1519 1520 1521 1522 1523 1525 1526 1527 1528 1529 1529 1530 1530 1530 1530 1530 1531 1531 1531 1531 1531 1530 1530 1530 1530 1529 1529 1528 1527 1526 1526 1525 1524 1523 1522 1521 1520 1519
1510 1512 1513 1514 1515 1517 1518 1519 1520 1521 1522 1523 1525 1526 1528 1529 1527 1528 1528 1528 1529 1529 1529 1529 1529 1528 1528 1528 1527 1527 1527 1526 1526 1525 1524 1523 1522 1521 1520 1520 1519 1517 1516
1508 1509 1511 1512 1513 1514 1515 1516 1517 1519 1520 1521 1522 1524 1525 1526 1526 1526 1526 1526 1526 1526 1526 1526 1526 1526 1525 1525 1525 1525 1524 1524 1523 1522 1521 1521 1520 1519 1518 1517 1516 1514 1513
1505 1507 1508 1509 1511 1512 1513 1514 1515 1516 1517 1518 1520 1520 1522 1522 1524 1524 1524 1524 1524 1524 1524 1524 1524 1523 1523 1523 1522 1522 1522 1521 1520 1519 1519 1518 1517 1516 1515 1514 1512 1511 1510
1502 1504 1505 1507 1508 1509 1510 1511 1512 1513 1514 1516 1517 1517 1518 1519 1520 1521 1522 1522 1522 1521 1521 1521 1521 1520 1520 1520 1519 1519 1519 1518 1517 1516 1515 1515 1514 1513 1512 1510 1509 1508 1507
1500 1501 1502 1504 1505 1506 1507 1508 1510 1511 1511 1512 1514 1514 1515 1516 1517 1518 1519 1519 1518 1518 1518 1518 1517 1517 1517 1517 1516 1516 1516 1515 1514 1513 1512 1511 1510 1509 1508 1507 1506 1504 1503
1496 1498 1499 1501 1502 1503 1504 1505 1506 1507 1508 1509 1510 1511 1512 1513 1514 1515 1516 1516 1515 1515 1514 1514 1514 1514 1513 1513 1513 1513 1512 1512 1511 1510 1508 1507 1506 1505 1504 1503 1502 1500 1499
1494 1495 1496 1497 1499 1500 1501 1502 1503 1504 1505 1506 1507 1508 1508 1509 1510 1511 1512 1513 1513 1512 1511 1511 1511 1510 1510 1510 1509 1509 1508 1508 1507 1506 1504 1503 1502 1501 1500 1499 1498 1496 1495
1491 1492 1493 1494 1495 1496 1497 1499 1500 1501 1501 1502 1503 1504 1505 1505 1506 1507 1508 1509 1510 1509 1509 1508 1507 1507 1506 1506 1505 1505 1504 1503 1503 1502 1500 1499 1498 1497 1496 1495 1493 1492 1491
1488 1489 1490 1491 1492 1493 1494 1495 1496 1497 1498 1499 1500 1500 1501 1502 1502 1503 1504 1505 1505 1505 1505 1504 1503 1503 1502 1502 1501 1501 1500 1499 1498 1497 1496 1495 1494 1492 1491 1490 1489 1487 1486
1485 1486 1486 1488 1489 1490 1491 1492 1493 1494 1494 1495 1496 1497 1497 1498 1498 1499 1499 1500 1500 1500 1500 1499 1499 1499 1498 1498 1497 1497 1496 1495 1493 1492 1491 1490 1489 1488 1486 1485 1484 1482 1481
1482 1482 1483 1485 1486 1487 1487 1488 1489 1490 1491 1491 1492 1493 1494 1494 1494 1495 1495 1495 1495 1496 1496 1495 1494 1494 1493 1493 1492 1492 1491 1490 1489 1487 1486 1485 1484 1483 1481 1480 1478 1477 1476
1478 1479 1480 1481 1482 1483 1484 1485 1486 1486 1487 1488 1488 1489 1489 1490 1490 1490 1491 1491 1491 1491 1491 1490 1489 1489 1489 1488 1487 1486 1485 1484 1483 1482 1481 1480 1479 1477 1476 1474 1472 1471 1470
1475 1476 1478 1479 1479 1480 1480 1481 1482 1482 1483 1484 1484 1485 1485 1485 1485 1486 1486 1486 1486 1486 1486 1485 1485 1484 1484 1483 1482 1481 1480 1479 1478 1477 1475 1474 1473 1471 1469 1468 1467 1465 1464
1472 1473 1474 1475 1476 1476 1477 1478 1478 1478 1479 1479 1479 1480 1480 1481 1481 1481 1481 1481 1481 1481 1481 1481 1480 1479 1478 1478 1477 1476 1475 1474 1472 1471 1469 1468 1467 1465 1463 1462 1461 1459 1458
1469 1470 1471 1471 1472 1472 1473 1474 1474 1474 1474 1475 1475 1475 1476 1476 1476 1476 1476 1476 1476 1476 1476 1476 1475 1474 1474 1473 1473 1472 1470 1469 1467 1466 1464 1463 1462 1460 1458 1457 1455 1454 1452
1465 1466 1467 1467 1467 1468 1469 1469 1470 1470 1470 1470 1470 1470 1470 1471 1471 1471 1471 1470 1470 1470 1471 1471 1469 1469 1469 1468 1467 1466 1465 1464 1462 1461 1459 1456 1456 1454 1453 1451 1449 1448 1446
1461 1462 1462 1463 1463 1463 1464 1465 1465 1465 1465 1465 1465 1465 1465 1465 1465 1466 1465 1464 1464 1464 1464 1464 1464 1463 1463 1462 1462 1461 1460 1458 1457 1456 1455 1452 1450 1449 1447 1445 1443 1442 1440
1457 1457 1458 1458 1458 1459 1459 1460 1460 1460 1460 1460 1460 1460 1460 1460 1460 1460 1459 1458 1458 1458 1458 1458 1457 1457 1456 1456 1456 1455 1454 1453 1450 1450 1449 1447 1444 1443 1441 1439 1437 1436 1435
1452 1452 1453 1453 1453 1454 1454 1454 1455 1454 1454 1454 1454 1455 1455 1455 1455 1454 1454 1453 1453 1452 1452 1451 1451 1451 1450 1449 1449 1449 1448 1447 1445 1443 1442 1442 1439 1438 1435 1433 1432 1431 1429